#timestamp,LO_Frequency,Hit,StdDev 
1580115615.8,286047003.6,N
1580115635.6,286047004.0,N
1580115655.4,286047003.3,N
1580115675.3,286047005.9,N
1580115695.1,286047005.0,N
1580115715.8,286047004.9,N
1580115735.7,286047005.0,N
1580115755.5,286047007.1,Y
1580115775.4,286047000.2,P
1580115795.2,286047000.3,N
1580115815.0,286047000.2,N
1580115815.9,286047000.2,N
1580115835.8,286047000.8,N
1580115855.6,286047000.6,N
1580115875.5,286046998.5,N
1580115895.3,286046998.5,N
1580115915.1,286046998.3,N
1580115935.9,286046998.1,N
1580115955.7,286046998.4,N
1580115975.5,286046998.6,N
1580115995.4,286046998.6,N
1580116015.2,286046998.6,N
1580116035.1,286047000.8,N
1580116036.0,286047000.8,N
1580116055.8,286046998.6,N
1580116075.6,286046998.5,N
1580116095.5,286046998.3,N
1580116115.3,286046998.9,N
1580116135.2,286046999.0,N
1580116155.9,286047000.8,N
1580116175.7,286047000.3,N
1580116195.6,286046998.4,N
1580116215.4,286046998.5,N
1580116235.2,286046996.6,N
1580116255.1,286046997.3,N
1580116256.0,286046997.3,N
1580116275.8,286046997.3,N
1580116295.7,286046997.2,N
1580116315.5,286046997.5,N
1580116335.3,286046996.7,N
1580116355.2,286046997.8,N
1580116375.0,286046999.0,N
1580116375.9,286046999.0,N
1580116395.8,286046996.5,Y
1580116415.6,286046998.5,P
1580116435.4,286047000.0,N
1580116455.3,286047000.2,N
1580116475.1,286047000.3,N
1580116495.8,286047000.1,N
1580116515.7,286047000.4,N
1580116535.5,286047000.4,N
1580116555.4,286046999.8,N
1580116575.2,286046998.8,N
1580116595.0,286046998.5,N
1580116595.9,286046998.5,N
1580116615.8,286047000.0,N
1580116635.6,286047002.4,Y
1580116655.4,286047002.4,P
1580116675.3,286047002.8,N
1580116695.1,286047002.4,N
1580116715.9,286047002.8,N
1580116735.7,286047001.7,N
1580116755.5,286047001.5,N
1580116775.4,286047001.4,N
1580116795.2,286047002.0,N
1580116815.0,286047001.7,N
1580116815.9,286047001.7,N
1580116835.8,286047003.7,Y
1580116855.6,286047000.4,P
1580116875.5,286047000.7,N
1580116895.3,286046999.9,N
1580116915.1,286046999.7,N
1580116935.9,286047000.0,N
1580116955.7,286046999.9,N
1580116975.5,286047000.5,N
1580116995.4,286047002.6,Y
1580117015.2,286047000.2,P
1580117035.1,286047002.5,P
1580117036.0,286047002.5,N
1580117055.8,286047000.2,N
1580117075.6,286046999.8,N
1580117095.5,286047002.5,N
1580117115.3,286047003.7,Y
1580117135.2,286047004.3,P
1580117155.9,286047001.4,N
1580117175.7,286047001.7,N
1580117195.6,286046999.8,N
1580117215.4,286047002.3,N
1580117235.2,286047001.9,N
1580117255.1,286047002.5,N
1580117256.0,286047002.5,N
1580117275.8,286047002.3,N
1580117295.7,286046999.8,N
1580117315.5,286047001.9,N
1580117335.3,286047003.6,Y
1580117355.2,286047004.4,P
1580117375.0,286047002.2,N
1580117375.9,286047002.2,N
1580117395.7,286047002.7,N
1580117415.6,286047000.5,N
1580117435.4,286047002.8,N
1580117455.3,286047000.0,N
1580117475.1,286047002.6,N
1580117476.0,286047002.6,N
1580117495.8,286047002.4,N
1580117515.7,286047001.0,N
1580117535.5,286046999.3,N
1580117555.3,286046999.0,N
1580117575.2,286046997.0,N
1580117595.0,286046999.2,N
1580117595.9,286046999.2,N
1580117615.8,286046998.9,N
1580117635.6,286047001.2,N
1580117655.4,286047002.3,N
1580117675.3,286047002.5,N
1580117695.1,286047003.5,N
1580117715.8,286047005.7,Y
1580117735.7,286047000.8,P
1580117755.5,286046999.9,N
1580117775.4,286047001.9,P
1580117795.2,286047001.6,N
1580117815.0,286047004.3,Y
1580117815.9,286047004.3,P
1580117835.8,286047000.2,N
1580117855.6,286046999.0,N
1580117875.5,286047000.6,N
1580117895.3,286046999.6,N
1580117915.1,286046997.2,N
1580117935.9,286046995.7,N
1580117955.7,286046998.0,N
1580117975.6,286046997.8,N
1580117995.4,286046998.0,N
1580118015.2,286046995.3,N
1580118035.1,286046997.6,N
1580118036.0,286046997.6,N
1580118055.8,286046995.0,N
1580118075.6,286046997.6,N
1580118095.5,286046995.4,N
1580118115.3,286046996.9,N
1580118135.2,286046998.4,N
1580118155.9,286046998.9,N
1580118175.7,286046998.8,N
1580118195.6,286046999.0,N
1580118215.4,286046996.5,N
1580118235.2,286046999.5,N
1580118255.1,286046999.3,N
1580118256.0,286046999.3,N
1580118275.8,286046998.7,N
1580118295.7,286046998.3,N
1580118315.5,286047000.6,N
1580118335.3,286047000.5,N
1580118355.2,286046998.1,N
1580118375.9,286046999.4,N
1580118395.7,286046999.0,N
1580118415.6,286047001.2,N
1580118435.4,286047001.1,N
1580118455.2,286047000.3,N
1580118475.1,286047000.2,N
1580118476.0,286047000.2,N
1580118495.8,286047000.4,N
1580118515.7,286046998.2,N
1580118535.5,286046998.4,N
1580118555.3,286046998.8,N
1580118575.2,286047000.2,N
1580118595.0,286046998.2,N
1580118595.9,286046998.2,N
1580118615.7,286046998.9,N
1580118635.6,286046999.6,N
1580118655.4,286046998.9,N
1580118675.3,286047000.2,N
1580118695.1,286046999.4,N
1580118696.0,286046999.4,N
1580118715.8,286046999.6,N
1580118735.7,286047000.2,N
1580118755.5,286047001.0,N
1580118775.3,286047000.2,N
1580118795.2,286046999.8,N
1580118815.0,286047002.1,N
1580118815.9,286047002.1,N
1580118835.8,286046999.7,N
1580118855.6,286047002.3,N
1580118875.4,286046998.1,N
1580118895.3,286046999.2,N
1580118915.1,286046998.2,N
1580118935.8,286046998.2,N
1580118955.7,286046998.7,N
1580118975.5,286046998.8,N
1580118995.4,286046998.7,N
1580119015.2,286046998.9,N
1580119035.0,286046998.6,N
1580119035.9,286046998.6,N
1580119055.8,286046998.6,N
1580119075.6,286046998.7,N
1580119095.4,286046998.3,N
1580119115.3,286047000.7,N
1580119135.1,286046998.6,N
1580119155.9,286046998.3,N
1580119175.7,286046999.3,N
1580119195.5,286046999.0,N
